Weather Roundup
Issued by NWS Chicago, IL

Home | Current Version | Previous Version | Text Only | Print | Product List | Glossary Off
Versions: 1 2 3 4 5 6 7 8 9 10 11 12 13 14 15 16 17 18 19 20 21 22 23 24 25 26 27 28 29 30 31 32 33 34 35 36 37 38 39 40 41 42 43 44 45 46 47 48 49 50

000
NZUS59 KLOT 050608
HRRLOT

CHICAGO AREA WEATHER ROUNDUP
NATIONAL WEATHER SERVICE CHICAGO/ROMEOVILLE IL
100 AM CDT TUE MAY 05 2015

NOTE: "FAIR" INDICATES FEW OR NO CLOUDS BELOW 12,000 FEET WITH NO
SIGNIFICANT WEATHER AND/OR OBSTRUCTIONS TO VISIBILITY.

* THESE STATIONS ARE NOT UNDER NWS QUALITY CONTROL. THEY ALSO MAY NOT
  REPORT WEATHER SUCH AS PRECIPITATION OR FOG.

ILZ005-006-012>014-019>023-050700-
NORTHEAST ILLINOIS

CITY           SKY/WX    TMP DP  RH WIND       PRES   REMARKS
OHARE          CLOUDY    56  38  50 NW5       30.18R
6HR MIN TEMP:  55; 6HR MAX TEMP:  62;

MIDWAY         CLOUDY    60  35  39 E6        30.17S
6HR MIN TEMP:  57; 6HR MAX TEMP:  62;

AURORA         CLOUDY    54  45  71 NE8       30.17F
6HR MIN TEMP:  53; 6HR MAX TEMP:  69; 6HR PCP:  0.18;

LANSING*       MOCLDY    54  46  75 NE6       30.17S
JOLIET*        LGT RAIN  58  54  86 E5        30.17F
WAUKEGAN       CLOUDY    51  37  58 CALM      30.19S
6HR MIN TEMP:  47; 6HR MAX TEMP:  52;

DUPAGE AIRPORT LGT RAIN  54  45  71 NE5       30.18F
6HR MIN TEMP:  54; 6HR MAX TEMP:  65; 6HR PCP:  0.02;

WHEELING       CLOUDY    54  37  52 NE6       30.19S
6HR MIN TEMP:  52; 6HR MAX TEMP:  58;

KANKAKEE*      CLOUDY    62  60  96 SE3       30.19R
MORRIS*        LGT RAIN  58  54  85 NE3       30.13S
LEWIS AIRPORT* LGT RAIN  55  49  80 E9        30.17F
NORTHERLY IS     N/A     52  39  61 N5          N/A
$$

WIZ051-052-058>065-066-070>072-050700-
SOUTHEAST WISCONSIN

CITY           SKY/WX    TMP DP  RH WIND       PRES   REMARKS
MILWAUKEE      CLOUDY    51  34  52 N3        30.21S
6HR MIN TEMP:  50; 6HR MAX TEMP:  55;

KENOSHA*       CLOUDY    51  38  60 NE6       30.19F
RACINE*        MOCLDY    50  36  58 N3        30.22R
BURLINGTON     CLOUDY    51  37  59 CALM      30.20S
WAUKESHA       CLOUDY    50  34  53 NE5       30.22S
WEST BEND      CLOUDY    50  34  53 NE3       30.23R
$$

INZ001>003-010>013-019-020-050700-
NORTHWEST INDIANA

CITY           SKY/WX    TMP DP  RH WIND       PRES   REMARKS
GARY*          CLOUDY    54  45  73 NE5       30.17F
6HR MIN TEMP:  51; 6HR MAX TEMP:  61;

MICHIGAN CITY* NOT AVBL
RENSSELAER*    NOT AVBL
VALPARAISO     CLOUDY    58  54  86 NE6       30.17F
$$

LMZ740>746-050700-
SOUTHERN LAKE MICHIGAN

STATION/POSITION TIME  SKY/WX   TEMP WIND        PRES    VSBY
                                AIR  DIR/SP/G
                 (UTC)          (F)  (DEG/KT/KT) (MB)    (MI)
HARRISON CRIB    0500            49  360/  3/  5   N/A
BURNHAM HARBOR   0600            52  360/  4/  6   N/A
CALUMET HARBOR   0500            50  360/  3/  6   N/A
BURNS HARBOR     0500            53   60/  8/  9 1022.4R
MICHIGAN CITY    0500            53   40/ 10/ 12   N/A
$$

ABBREVIATIONS USED IN REMARKS
   TC - TEMPERATURE IN CELSIUS
  WCI - WIND CHILL INDEX
   HX - HEAT INDEX
  VSB - VISIBILITY
$$


USA.gov is the U.S. government's official web portal to all federal, state and local government web resources and services.